Location: Gollag?dem
(16.8053°N, 80.8024°E)
Time: 14:14:14
(UTC+00:00)

SPOT 3 Rocket - Pass Details

Date: 13 August 2020
Orbit: 778 x 795 km, 98.8° (Epoch: 24 September)

Event Time Altitude Azimuth Distance (km) Brightness Sun altitude
Exits shadow 14:59:52 36° 29° (NNE) 1,227 4.4 -27.0°
Drops below altitude 10° 15:03:16 10° 2° (N) 2,352 6.3 -27.7°
Sets 15:05:39 0° 357° (N) 3,279 7.2 -28.3°
